FW1775 Weather Reports


time (UTC)temp
C
wind
direction
speed
KPH
gust
KPH
rain 1hr
cm
rain 24hr
cm
rain mn
cm
humidity
%
barometer
mb
20260504014508 6 180 0.0 0.0 0.03 0.20 0.20 99 972.6
20260504013508 6 158 0.0 0.0 0.00 0.18 0.18 99 972.6
20260504013008 6 111 0.0 0.0 0.00 0.18 0.18 99 972.6
20260504012508 6 145 0.0 0.0 0.00 0.18 0.18 99 972.7
20260504011508 6 138 1.6 3.2 0.00 0.18 0.18 99 972.7
20260504011009 6 160 0.0 3.2 0.00 0.18 0.18 99 972.6
20260504010007 6 165 0.0 3.2 0.00 0.18 0.18 99 972.6
20260504005508 6 177 1.6 3.2 0.00 0.18 0.18 99 972.6
20260504005008 7 169 0.0 0.0 0.00 0.18 0.18 99 972.7
20260504004508 7 156 0.0 0.0 0.00 0.18 0.18 99 972.7
20260504004008 7 158 0.0 0.0 0.00 0.18 0.18 99 972.7
20260504003508 7 157 0.0 1.6 0.00 0.18 0.18 99 972.7
20260504003008 7 150 1.6 3.2 0.00 0.18 0.18 99 972.7
20260504002508 7 159 1.6 3.2 0.00 0.18 0.18 99 972.8
20260504001008 7 131 1.6 3.2 0.00 0.18 0.18 99 972.6
20260504000508 7 171 1.6 3.2 0.00 0.18 0.18 99 972.6
20260504000008 7 160 0.0 3.2 0.00 0.18 0.18 99 972.7
20260503235508 7 172 1.6 3.2 0.00 0.18 0.18 99 972.7
20260503234008 7 180 1.6 3.2 0.00 0.18 0.18 99 972.8
20260503233509 7 150 3.2 3.2 0.00 0.18 0.18 99 972.8
20260503233008 7 165 0.0 0.0 0.00 0.18 0.18 99 972.8
20260503232508 7 169 0.0 0.0 0.00 0.18 0.18 99 973.1
20260503232008 7 178 0.0 0.0 0.03 0.18 0.18 99 973.1
20260503231508 7 180 0.0 1.6 0.05 0.18 0.18 99 973.1
20260503231008 7 175 1.6 1.6 0.08 0.18 0.18 99 973.1
20260503230508 7 183 0.0 0.0 0.08 0.18 0.18 99 973.1
20260503225510 7 169 0.0 0.0 0.10 0.18 0.18 99 973.2
20260503225008 7 180 0.0 0.0 0.10 0.18 0.18 99 973.3
20260503223508 7 180 0.0 0.0 0.10 0.18 0.18 99 973.3
20260503223007 7 222 0.0 1.6 0.10 0.18 0.18 99 973.3
20260503222508 7 213 0.0 1.6 0.13 0.18 0.18 99 973.5
20260503221507 7 263 0.0 1.6 0.08 0.13 0.13 98 973.5
20260503221007 7 232 0.0 1.6 0.08 0.10 0.10 98 973.5
20260503220507 7 277 0.0 3.2 0.08 0.10 0.10 97 973.5
20260503215508 8 219 1.6 3.2 0.05 0.08 0.08 96 973.5
20260503215008 8 165 1.6 8.0 0.05 0.08 0.08 96 973.4
20260503213507 8 203 0.0 9.7 0.08 0.08 0.08 94 973.3
20260503213008 8 163 4.8 9.7 0.08 0.08 0.08 92 973.3
20260503212508 8 219 1.6 3.2 0.05 0.05 0.05 89 972.9
20260503212008 9 267 0.0 0.0 0.05 0.05 0.05 89 972.9
20260503211508 9 202 0.0 1.6 0.05 0.05 0.05 89 972.9
20260503211008 9 192 0.0 3.2 0.03 0.03 0.03 87 973.2
20260503210508 9 202 1.6 3.2 0.03 0.03 0.03 86 973.2
20260503210008 9 265 1.6 8.0 0.03 0.03 0.03 84 973.1
20260503205008 10 195 3.2 19.3 0.03 0.03 0.03 79 973.3
20260503204508 9 171 4.8 19.3 0.00 0.00 0.00 77 973.5
20260503204008 10 201 3.2 9.7 0.00 0.00 0.00 76 973.5
20260503203508 10 168 4.8 11.3 0.00 0.00 0.00 75 973.3
20260503203007 10 245 6.4 11.3 0.00 0.00 0.00 71 973.3
20260503202507 11 108 4.8 4.8 0.00 0.00 0.00 69 973.5
20260503202008 11 158 3.2 3.2 0.00 0.00 0.00 68 973.5
20260503201508 11 161 3.2 3.2 0.00 0.00 0.00 64 973.5
20260503201008 12 172 3.2 8.0 0.00 0.00 0.00 60 973.3
20260503200508 12 112 4.8 9.7 0.00 0.00 0.00 60 973.3
20260503195507 12 146 3.2 8.0 0.00 0.00 0.00 60 973.2
20260503195008 11 164 4.8 8.0 0.00 0.00 0.00 58 973.3
20260503194507 12 235 3.2 4.8 0.00 0.00 0.00 58 973.5
20260503194008 12 75 3.2 4.8 0.00 0.00 0.00 58 973.5
20260503193508 11 131 4.8 4.8 0.00 0.00 0.00 59 974.0
20260503192508 11 316 4.8 8.0 0.00 0.00 0.00 61 974.4
20260503192007 11 67 4.8 9.7 0.00 0.00 0.00 58 974.4
20260503191508 11 341 4.8 9.7 0.00 0.00 0.00 60 974.4
20260503191008 11 258 4.8 9.7 0.00 0.00 0.00 59 974.7
20260503190507 11 218 4.8 8.0 0.00 0.00 0.00 56 974.7
20260503190008 12 268 4.8 11.3 0.00 0.00 0.00 56 974.9
20260503185507 11 128 4.8 12.9 0.00 0.00 0.00 55 974.9
20260503185008 11 270 8.0 16.1 0.00 0.00 0.00 56 974.9
20260503184507 12 157 9.7 16.1 0.00 0.00 0.00 54 974.9
20260503184008 12 171 4.8 11.3 0.00 0.00 0.00 50 974.9
20260503183507 12 157 8.0 11.3 0.00 0.00 0.00 50 974.9
20260503183008 12 245 4.8 9.7 0.00 0.00 0.00 49 974.9
20260503182507 12 142 4.8 11.3 0.00 0.00 0.00 50 975.0
20260503182007 12 191 8.0 11.3 0.00 0.00 0.00 49 975.0
20260503181508 12 163 8.0 14.5 0.00 0.00 0.00 49 975.0
20260503181008 12 166 8.0 14.5 0.00 0.00 0.00 49 975.1
20260503180007 12 158 8.0 16.1 0.00 0.00 0.00 48 975.1
20260503175507 12 179 11.3 12.9 0.00 0.00 0.00 47 975.1
20260503174007 13 196 4.8 14.5 0.00 0.00 0.00 46 975.2
20260503173007 12 201 9.7 12.9 0.00 0.00 0.00 48 975.4
20260503172507 12 141 6.4 12.9 0.00 0.00 0.00 50 975.4
20260503172008 12 158 8.0 12.9 0.00 0.00 0.00 49 975.4
20260503171507 12 219 4.8 11.3 0.00 0.00 0.00 48 975.4
20260503171007 12 167 9.7 12.9 0.00 0.00 0.00 48 975.8
20260503170507 12 147 9.7 12.9 0.00 0.00 0.00 49 975.8
20260503151008 10 122 8.0 12.9 0.00 0.00 0.00 52 977.3
20260503150506 10 181 8.0 11.3 0.00 0.00 0.00 53 977.3
20260503131008 8 180 3.2 4.8 0.00 0.00 0.00 63 977.9
20260503130507 8 186 3.2 4.8 0.00 0.00 0.00 62 977.9
20260503110507 -2 180 0.0 0.0 0.00 0.00 0.00 96 978.1
20260503090508 -2 180 0.0 0.0 0.00 0.00 0.00 91 978.7
20260503081509 -1 180 1.6 3.2 0.00 0.03 0.00 89 979.0
20260503081008 -1 180 0.0 0.0 0.00 0.03 0.00 88 979.0
20260503080509 -1 180 0.0 0.0 0.00 0.03 0.00 88 979.0
20260503072509 -1 180 0.0 1.6 0.00 0.03 0.00 86 978.9
20260503072009 0 180 1.6 3.2 0.00 0.03 0.00 86 978.9
20260503071509 -1 165 0.0 3.2 0.00 0.03 0.00 86 978.9
20260503071009 -1 192 1.6 4.8 0.00 0.03 0.00 86 978.9
20260503070509 -1 188 1.6 4.8 0.00 0.03 0.00 85 978.9
20260503055008 -2 174 0.0 0.0 0.00 0.03 0.00 91 979.4
20260503054508 -2 158 0.0 0.0 0.00 0.03 0.00 91 979.5
20260503054008 -2 180 0.0 0.0 0.00 0.03 0.00 91 979.5
20260503053509 -2 180 0.0 0.0 0.00 0.03 0.00 92 979.5
20260503053008 -2 180 0.0 0.0 0.00 0.03 0.00 92 979.5
20260503052509 -2 158 0.0 0.0 0.00 0.03 0.00 92 979.8
20260503052008 -2 174 0.0 0.0 0.00 0.03 0.00 92 979.8
20260503051508 -2 159 0.0 0.0 0.00 0.03 0.00 92 979.8
20260503050509 -2 158 0.0 0.0 0.00 0.03 0.00 92 979.9
20260503050008 -2 160 0.0 0.0 0.00 0.03 0.00 92 979.9
20260503045508 -2 170 0.0 0.0 0.00 0.03 0.00 92 979.9
20260503045008 -2 164 0.0 0.0 0.00 0.03 0.00 92 979.9
20260503044008 -1 179 0.0 0.0 0.00 0.03 0.00 92 979.9
20260503043509 -1 184 0.0 0.0 0.00 0.03 0.00 91 980.1
20260503043009 -1 160 0.0 0.0 0.00 0.03 0.00 90 980.1
20260503042008 -1 177 0.0 0.0 0.00 0.03 0.00 88 980.1
20260503041508 -1 180 0.0 0.0 0.00 0.03 0.00 88 980.1
20260503041008 -1 168 0.0 0.0 0.00 0.03 0.00 87 979.9
20260503040509 -1 184 0.0 0.0 0.00 0.03 0.00 86 979.9
20260503040008 -1 200 0.0 1.6 0.00 0.03 0.00 87 980.0
20260503035509 -1 180 0.0 4.8 0.00 0.03 0.03 87 980.0
20260503035009 -1 55 1.6 4.8 0.00 0.03 0.03 87 980.0
20260503034508 -1 194 0.0 1.6 0.00 0.03 0.03 87 980.1
20260503034009 -1 203 0.0 1.6 0.00 0.03 0.03 87 980.1
20260503033008 -1 179 0.0 0.0 0.00 0.03 0.03 85 980.1
20260503032509 -1 180 0.0 0.0 0.00 0.03 0.03 84 980.2
20260503032008 -1 180 0.0 0.0 0.00 0.03 0.03 86 980.2
20260503030508 0 196 0.0 0.0 0.00 0.03 0.03 81 980.1
20260503025508 0 180 0.0 0.0 0.00 0.03 0.03 79 980.2
20260503025009 0 180 0.0 0.0 0.00 0.03 0.03 80 980.2
20260503024508 0 180 0.0 0.0 0.00 0.03 0.03 80 980.4
20260503023509 0 202 0.0 0.0 0.00 0.03 0.03 79 980.5
20260503023008 0 238 0.0 0.0 0.00 0.03 0.03 78 980.5
20260503022508 0 193 0.0 0.0 0.00 0.03 0.03 79 980.4
20260503022008 0 199 0.0 0.0 0.00 0.03 0.03 76 980.4
20260503021508 0 202 0.0 0.0 0.00 0.03 0.03 76 980.4
20260503021008 0 180 0.0 0.0 0.00 0.03 0.03 77 980.2
20260503020509 1 215 0.0 0.0 0.00 0.03 0.03 76 980.2
20260503015508 1 246 0.0 1.6 0.00 0.03 0.03 74 980.4
20260503015008 1 209 0.0 1.6 0.00 0.03 0.03 73 980.4